Simultaneous Nadir Overpasses (SNOs) Predictions

Prediction of SNOs between METOP-B and TERRA Satellite Orbit:

Table of predicted SNOs for the next 14.0 days since TLE Epoch: 10/9/2016
Index Date (METOP-B) Time (METOP-B) Lat,Lon (METOP-B) SZA (METOP-B ) Date (TERRA) Time (TERRA) Lat,Lon (TERRA) SZA (TERRA ) Distance(km) Time Diff (sec)
1 10/10/2016 23:40:32 -81.27, 51.31 88.61 10/10/2016 23:40:46 -81.28, 51.46 88.59 2.67 14
2 10/11/2016 00:31:11 81.29,-140.59 91.50 10/11/2016 00:30:12 81.28,-140.79 91.45 3.27 59
3 10/13/2016 19:14:55 -81.28, 117.93 87.52 10/13/2016 19:15:00 -81.28, 118.04 87.50 1.88 5
4 10/13/2016 20:05:35 81.28, -74.36 92.55 10/13/2016 20:04:26 81.29, -74.23 92.53 2.30 69
5 10/16/2016 13:58:38 81.27, 16.55 93.47 10/16/2016 13:59:47 81.27, 16.54 93.50 0.52 69
6 10/
